Regional Weather Roundup
Issued by NWS

Home | Current Version | Previous Version | Graphics & Text | Print | Product List | Glossary On
Versions: 1 2 3 4 5 6 7 8 9 10 11 12 13 14 15 16 17 18 19 20 21 22 23 24 25 26 27 28 29 30 31 32 33 34 35 36 37 38 39 40 41 42 43 44 45 46 47 48 49 50
000
ASUS43 KMPX 270701
RWRMN
WEATHER ROUNDUP FOR MINNESOTA
NATIONAL WEATHER SERVICE TWIN CITIES/CHANHASSEN MN
100 AM CST FRI FEB 27 2015


NOTE: "FAIR" INDICATES FEW OR NO CLOUDS BELOW 12,000 FEET WITH NO
SIGNIFICANT WEATHER AND/OR OBSTRUCTIONS TO VISIBILITY. N/A MEANS
CURRENT SKY AND/OR WEATHER CONDITIONS ARE NOT AVAILABLE.

MNZ060>063-068>070-270800-
   Twin Cities Metro

CITY           SKY/WX    TMP DP  RH WIND       PRES   REMARKS
TWIN CITIES    CLEAR      1  -9  62 W5        30.50R WCI  -9
ST PAUL        CLEAR      1  -8  66 NW7       30.51S WCI -12
CRYSTAL        CLEAR      1  -9  62 NW6       30.49R WCI -10
BLAINE         CLEAR      1  -8  66 W6        30.48R WCI -10
LAKEVILLE      CLEAR     -8 -11  84 W8        30.49S WCI -23
EDEN PRAIRIE   CLEAR     -3 -10  72 W5        30.49S WCI -13
SOUTH ST PAUL  CLEAR      2  -8  60 CALM      30.50R
LAKE ELMO      FAIR       1  -8  66 NW3       30.49R
$$
MNZ001>005-007-008-013>017-022>024-027-028-270800-
   Northwest Minnesota

CITY           SKY/WX    TMP DP  RH WIND       PRES   REMARKS
BEMIDJI        PTCLDY    -8 -13  80 W3        30.39F
ROSEAU         FAIR      -6 -11  77 W6        30.41R WCI -18
WARROAD        PTCLDY    -6 -11  77 W7        30.39S WCI -20
THIEF RVR FALL PTCLDY    -8  -8 100 CALM      30.43S
CROOKSTON      PTCLDY    -9 -15  77 SW3       30.48S
FOSSTON        PTCLDY   -17 -20  83 S3        30.43S
DETROIT LAKES  CLEAR     -4  -8  84 W3        30.44S
MOORHEAD       FAIR      -6  -9  84 W6        30.50S WCI -18
PARK RAPIDS    CLEAR    -11 -16  78 W3        30.39F
MAHNOMEN       FAIR      -9 -14  80 SW3       30.44S
$$
MNZ006-009>011-018-025>026-270800-
   North Central Minnesota

CITY           SKY/WX    TMP DP  RH WIND       PRES   REMARKS
BAUDETTE       PTCLDY    -9 -13  83 W5        30.36S WCI -20
FLAG ISLAND    PTCLDY    -8 -11  84 NW9       30.36S WCI -25
INTL FALLS     PTCLDY   -14 -20  74 W6        30.36F WCI -28
WASKISH        PTCLDY    -8  -9  92 SW8       30.39S WCI -23
BIG FORK       CLEAR    -15 -20  76 CALM      30.37S
LONGVILLE      CLEAR    -17 -20  83 CALM      30.41S
GRAND RAPIDS   CLEAR     -6 -11  77 W6        30.36S WCI -18
CRANE LAKE     PTCLDY   -22 -27  76 CALM      30.38S
ORR            PTCLDY   -13 -18  77 CALM      30.33S
COOK           PTCLDY   -17 -20  83 CALM      30.36S
WALKER         FAIR      -7 -11  83 W6        30.40F WCI -20
$$
MNZ012-019>021-037-270800-
   Northeast Minnesota

CITY           SKY/WX    TMP DP  RH WIND       PRES   REMARKS
DULUTH         CLEAR     -4 -15  59 NW16      30.33F WCI -25
ELY            CLEAR    -17 -22  76 W5        30.33S WCI -29
HIBBING        CLEAR     -7 -13  75 W3        30.36S
EVELETH        PTCLDY    -6 -13  71 W3        30.36S
DULUTH HARBOR  CLEAR      0 -11  60 SW7       30.46S WCI -13
TWO HARBORS    CLEAR      1 -11  55 CALM      30.35R
SILVER BAY     CLEAR      1 -11  55 CALM      30.33R
GRAND MARAIS     N/A      1 -10  60 CALM      30.36R
G MARAIS ARPRT CLEAR     -4 -15  59 NW9       30.23R WCI -20
$$
MNZ029>031-032-039>041-046>048-054>057-064-270800-
   West Central Minnesota

CITY           SKY/WX    TMP DP  RH WIND       PRES   REMARKS
FERGUS FALLS   CLEAR     -8 -13  77 CALM      30.52F
WHEATON        CLEAR     -9 -15  77 W5        30.53S WCI -21
MORRIS         CLEAR     -9 -15  77 NW7       30.48S WCI -24
ALEXANDRIA     CLEAR     -6 -10  83 W7        30.45S WCI -20
ELBOW LAKE     FAIR      -7 -11  82 W5        30.48S WCI -18
WADENA         CLEAR     -9 -15  77 W5        30.43S WCI -21
GLENWOOD       CLEAR     -6  -9  84 W5        30.46S WCI -17
APPLETON       CLEAR    -11 -17  77 W8        30.53S WCI -28
BENSON         FAIR      -9 -15  77 CALM      30.49S
ORTONVILLE     CLEAR     -8 -13  77 W5        30.51S WCI -19
MADISON        CLEAR     -6 -11  77 W7        30.53S WCI -20
WILLMAR        FAIR      -9 -15  77 W6        30.50S WCI -23
$$
MNZ033>034-036-042>043-049>051-058-059-270800-
   Central Minnesota

CITY           SKY/WX    TMP DP  RH WIND       PRES   REMARKS
ST CLOUD       CLEAR     -4 -10  75 NW5       30.47S WCI -15
SAUK CENTRE    FAIR      -6 -10  81 W3        30.46S
PAYNESVILLE    CLEAR    -10 -14  82 S3        30.48S
AITKIN         CLEAR     -4 -13  65 W3        30.41S
PINE RIVER     CLEAR    -15 -18  84 CALM      30.44S
BRAINERD       CLEAR    -10 -15  78 W6        30.44S WCI -23
STAPLES        CLEAR    -11 -15  84 W3        30.43S
LONG PRAIRIE   FAIR      -6  -9  84 CALM      30.45S
LITTLE FALLS   CLEAR     -9 -15  77 CALM      30.47S
LITCHFIELD     CLEAR     -4  -9  77 CALM      30.49S
MAPLE LAKE     CLEAR     -1  -6  79 W3        30.50R
$$
MNZ037-044-045-052-053-270800-
   East Central Minnesota

CITY           SKY/WX    TMP DP  RH WIND       PRES   REMARKS
PRINCETON      CLEAR     -6 -13  71 CALM      30.47R
MORA           CLEAR    -13 -18  77 CALM      30.47S
CAMBRIDGE      CLEAR     -4 -13  65 CALM      30.46S
RUSH CITY      MOCLDY    -6 -13  69 CALM      30.47S
MOOSE LAKE     CLEAR     -4 -13  65 CALM      30.41F
HINCKLEY       FAIR      -2 -11  65 CALM      30.45S
CLOQUET        CLEAR     -6 -15  65 W6        30.38S WCI -18
MCGREGOR       CLEAR     -4  -9  77 CALM      30.42S
$$
MNZ071>073-080-081-089-090-097-098-270800-
   Southwest Minnesota

CITY           SKY/WX    TMP DP  RH WIND       PRES   REMARKS
MONTEVIDEO     CLEAR     -8 -11  84 W6        30.54R WCI -21
GRANITE FALLS  CLEAR    -10 -16  77 W8        30.54S WCI -27
CANBY          CLEAR     -6 -12  76 W7        30.53S WCI -20
MARSHALL       CLEAR     -6 -13  71 NW9       30.52S WCI -22
REDWOOD FALLS  CLEAR     -8 -13  78 W8        30.53S WCI -24
OLIVIA         CLEAR     -6 -11  77 W6        30.51S WCI -18
PIPESTONE      PTCLDY   -11 -17  77 W3        30.47S
WINDOM         CLEAR    -11 -17  77 CALM      30.49S
WORTHINGTON    CLEAR     21 -20  15 W8        30.50S WCI  12
JACKSON        CLEAR     -8 -15  71 W6        30.49S WCI -21
TRACY          CLEAR     -6 -12  75 W5        30.51R WCI -17
SLAYTON        CLEAR     -9 -15  74 CALM      30.48R
$$
MNZ065>067-074>077-082>085-091>093-270800-
   South Central Minnesota

CITY           SKY/WX    TMP DP  RH WIND       PRES   REMARKS
MANKATO        CLEAR     -6 -15  65 W5        30.50S WCI -17
NEW ULM        CLEAR    -11 -17  77 W8        30.52S WCI -28
ST JAMES       CLEAR     -6 -11  77 W7        30.53R WCI -20
FAIRMONT       PTCLDY    -8 -13  77 NW8       30.48S WCI -23
GLENCOE        CLEAR     -6 -10  82 W5        30.50R WCI -17
FARIBAULT      CLEAR     -8 -11  84 CALM      30.49S
OWATONNA       CLEAR    -15 -18  84 W3        30.48S
WASECA         CLEAR    -11 -17  77 W5        30.50S WCI -23
ALBERT LEA     PTCLDY    -8 -11  84 NW5       30.47S WCI -19
$$
MNZ078>079-086>088-094>096-270800-
   Southeast Minnesota

CITY           SKY/WX    TMP DP  RH WIND       PRES   REMARKS
ROCHESTER      CLEAR    -11 -16  78 W9        30.45R WCI -29
RED WING       CLEAR     -9 -17  70 W3        30.49S
STANTON        CLEAR     -6 -12  75 CALM      30.49R
DODGE CENTER   PTCLDY    -8 -13  77 W7        30.44S WCI -22
WINONA         CLEAR     -4  -9  77 CALM      30.52S
AUSTIN         CLEAR     -8 -11  84 NW8       30.46S WCI -23
PRESTON        CLEAR    -10 -15  78 NW8       30.45S WCI -26
$$
ABBREVIATIONS USED IN REMARKS
   TC - TEMPERATURES IN CELSIUS
  WCI - WIND CHILL INDEX
   HX - HEAT INDEX
  VSB - VISIBILITY
$$



USA.gov is the U.S. government's official web portal to all federal, state and local government web resources and services.